Weather History for LKPO - May, 2013

Change the Weather History Date:

Monday, May 20, 2013

  Actual Average Record
Temperature  
Mean Temperature 60 °F -  
Max Temperature 66 °F - - ()
Min Temperature 55 °F - - ()
Degree Days  
Heating Degree Days 4    
Growing Degree Days 10 (Base 50)    
Moisture  
Dew Point 52 °F    
Average Humidity 76    
Maximum Humidity 94    
Minimum Humidity 49    
Precipitation  
Precipitation 0.00 in - - ()
Sea Level Pressure  
Sea Level Pressure 29.85 in    
Wind  
Wind Speed 7 mph ()    
Max Wind Speed 15 mph    
Max Gust Speed -    
Visibility 5.5 miles    
Events Rain , Thunderstorm    
T = Trace of Precipitation, MM = Missing Value Source: Averaged Metar Reports

Daily Weather History Graph

Daily Weather History Graph

Search for Another Location

Airport or City:

Trip Planner

Search our weather history database for the weather conditions in past years. The results will help you decide how hot, cold, wet, or windy it might be!

Date:

Astronomy

May. 20, 2013 Rise Set
Actual Time 5:00 AM CEST 8:34 PM CEST
Civil Twilight 4:20 AM CEST 9:14 PM CEST
Nautical Twilight 3:27 AM CEST 10:07 PM CEST
Astronomical Twilight 2:13 AM CEST 11:23 PM CEST
Moon 2:55 PM CEST (5/20) 2:15 AM CEST (5/20)
Length of Visible Light 16h 53m
Length of Day
15h 34m
Waxing Gibbous, 72% of the Moon is Illuminated
May 20
Waxing Gibbous
May 25
Full
May 31
Last Quarter
Jun 8
New
Jun 16
First Quarter

Hourly Weather History & Observations

Time (CEST) Temp. Dew Point Humidity Pressure Visibility Wind Dir Wind Speed Gust Speed Precip Events Conditions
12:00 AM 60.8 °F 55.4 °F 82% 29.77 in 2.5 mi SW 11.5 mph - N/A Rain , Thunderstorm Thunderstorms and Rain
12:09 AM 60.8 °F 55.4 °F 82% 29.80 in 5.0 mi SSW 6.9 mph - N/A Rain , Thunderstorm Light Thunderstorms and Rain
12:23 AM 60.8 °F 57.2 °F 88% 29.80 in 6.2 mi SSE 3.5 mph - N/A   Overcast
1:00 AM 60.8 °F 57.2 °F 88% 29.77 in - SSE 5.8 mph - N/A   Clear
2:00 AM 60.8 °F 57.2 °F 88% 29.80 in - WSW 5.8 mph - N/A   Clear
3:00 AM 60.8 °F 57.2 °F 88% 29.77 in - South 5.8 mph - N/A   Clear
4:00 AM 59.0 °F 57.2 °F 94% 29.77 in 6.2 mi South 5.8 mph - N/A   Overcast
5:00 AM 59.0 °F 57.2 °F 94% 29.77 in 6.2 mi SSW 4.6 mph - N/A   Overcast
5:14 AM 59.0 °F 57.2 °F 94% 29.80 in 6.2 mi South 6.9 mph - N/A   Overcast
6:00 AM 59.0 °F 55.4 °F 88% 29.80 in 6.2 mi South 8.1 mph - N/A   Overcast
6:30 AM 57.2 °F 53.6 °F 88% 29.83 in 6.2 mi WSW 10.4 mph - N/A Rain Rain Showers
6:31 AM 57.2 °F 53.6 °F 88% 29.83 in 2.5 mi WSW 10.4 mph - N/A Rain Rain Showers
6:35 AM 55.4 °F 53.6 °F 94% 29.83 in 2.5 mi West 15.0 mph - N/A Rain Light Rain Showers
6:46 AM 55.4 °F 53.6 °F 94% 29.83 in 5.0 mi WNW 12.7 mph - N/A Rain Light Rain Showers
7:00 AM 55.4 °F 53.6 °F 94% 29.83 in 6.2 mi WNW 11.5 mph - N/A   Mostly Cloudy
8:00 AM 55.4 °F 51.8 °F 88% 29.86 in 6.2 mi WNW 6.9 mph - N/A   Mostly Cloudy
9:00 AM 55.4 °F 50.0 °F 82% 29.89 in 6.2 mi NW 10.4 mph - N/A   Scattered Clouds
10:00 AM 59.0 °F 50.0 °F 72% 29.89 in 6.2 mi NW 5.8 mph - N/A   Scattered Clouds
11:00 AM 59.0 °F 48.2 °F 67% 29.89 in 6.2 mi WNW 9.2 mph - N/A   Scattered Clouds
12:00 PM 60.8 °F 48.2 °F 63% 29.92 in 6.2 mi WSW 5.8 mph - N/A   Mostly Cloudy
1:00 PM 64.4 °F 51.8 °F 64% 29.92 in 6.2 mi SW 8.1 mph - N/A   Mostly Cloudy
2:00 PM 66.2 °F 46.4 °F 49% 29.89 in 6.2 mi SW 10.4 mph - N/A   Mostly Cloudy
3:00 PM 66.2 °F 48.2 °F 52% 29.89 in - WSW 11.5 mph - N/A   Clear
4:00 PM 66.2 °F 48.2 °F 52% 29.89 in - SW 12.7 mph - N/A   Clear
5:00 PM 64.4 °F 48.2 °F 56% 29.89 in 6.2 mi WSW 12.7 mph - N/A   Scattered Clouds
6:00 PM 64.4 °F 46.4 °F 52% 29.89 in - SW 10.4 mph - N/A   Clear
7:00 PM 64.4 °F 46.4 °F 52% 29.89 in - SW 8.1 mph - N/A   Clear
8:00 PM 60.8 °F 44.6 °F 55% 29.89 in - SSW 5.8 mph - N/A   Clear
9:00 PM 57.2 °F 46.4 °F 67% 29.89 in - South 3.5 mph - N/A   Clear
10:00 PM 57.2 °F 46.4 °F 67% 29.92 in - South 4.6 mph - N/A   Clear